Ketchikan, AK

6:52 PM AKDT on October 17, 2018 (GMT -0800)
Ketchikan International

Weather History for PAKT - February, 2018

Change the Weather History Date:

Monday, February 5, 2018

  Actual Average Record
Temperature  
Mean Temperature 28 °F -  
Max Temperature 32 °F 42 °F 55 °F (1993)
Min Temperature 25 °F 31 °F 15 °F (1972)
Degree Days  
Heating Degree Days 36    
Moisture  
Dew Point 23 °F    
Average Humidity 78    
Maximum Humidity 88    
Minimum Humidity 66    
Precipitation  
Precipitation 0.00 in - - ()
Sea Level Pressure  
Sea Level Pressure 30.21 in    
Wind  
Wind Speed 7 mph (NW)    
Max Wind Speed 12 mph    
Max Gust Speed -    
Visibility 10 miles    
Events      
Averages and records for this station are not official NWS values.
T = Trace of Precipitation, MM = Missing Value Source: NWS Daily Summary

Daily Weather History Graph

Daily Weather History Graph

Search for Another Location

Airport or City:

Astronomy

Feb. 05, 2018 Rise Set
Actual Time 7:30 AM AKST 4:31 PM AKST
Civil Twilight 6:51 AM AKST 5:11 PM AKST
Nautical Twilight 6:07 AM AKST 5:54 PM AKST
Astronomical Twilight 5:25 AM AKST 6:37 PM AKST
Moon 11:34 PM AKST (2/5) 9:52 AM AKST (2/5)
Length of Visible Light 10h 19m
Length of Day
9h 00m
Waning Gibbous, 68% of the Moon is Illuminated
Feb 5
Waning Gibbous
Feb 7
Last Quarter
Feb 15
New
Feb 22
First Quarter
Mar 1
Full

Hourly Weather History & Observations

Time (AKST) Temp. Windchill Dew Point Humidity Pressure Visibility Wind Dir Wind Speed Gust Speed Precip Events Conditions
12:53 AM - - - N/A% 30.10 in 10.0 mi NW 6.9 mph - N/A   Clear
1:53 AM - - - N/A% 30.12 in 10.0 mi NW 8.1 mph - N/A   Clear
2:53 AM - - - N/A% 30.13 in 10.0 mi NW 11.5 mph - N/A   Partly Cloudy
3:53 AM - - - N/A% 30.15 in 10.0 mi NW 9.2 mph - N/A   Overcast
4:53 AM - - - N/A% 30.15 in 10.0 mi NW 9.2 mph - N/A   Mostly Cloudy
5:53 AM - - - N/A% 30.17 in 10.0 mi NNW 11.5 mph - N/A   Clear
6:17 AM 32.0 °F 24.2 °F 23.0 °F 69% 30.18 in 10.0 mi NW 9.2 mph - N/A   Clear
6:53 AM 32.0 °F 24.2 °F 23.0 °F 69% 30.19 in 10.0 mi NW 9.2 mph - N/A   Clear
7:53 AM 30.2 °F 22.6 °F 21.2 °F 69% 30.19 in 10.0 mi NNW 8.1 mph - N/A   Partly Cloudy
8:53 AM 30.0 °F 24.1 °F 24.1 °F 79% 30.21 in 10.0 mi NW 5.8 mph - N/A   Clear
9:53 AM 30.2 °F 22.6 °F 24.8 °F 80% 30.21 in 10.0 mi NW 8.1 mph - N/A   Partly Cloudy
10:53 AM 30.2 °F 22.6 °F 24.8 °F 80% 30.22 in 10.0 mi NW 8.1 mph - N/A   Partly Cloudy
11:53 AM 30.2 °F 24.3 °F 24.8 °F 80% 30.22 in 10.0 mi NW 5.8 mph - N/A   Partly Cloudy
12:53 PM 32.0 °F 26.4 °F 26.6 °F 80% 30.22 in 10.0 mi NW 5.8 mph - N/A   Partly Cloudy
1:53 PM 32.0 °F 24.8 °F 26.1 °F 79% 30.22 in 10.0 mi NW 8.1 mph - N/A   Partly Cloudy
2:53 PM 30.2 °F 24.3 °F 26.6 °F 86% 30.23 in 10.0 mi WNW 5.8 mph - N/A   Clear
3:53 PM 30.0 °F 26.5 °F 24.1 °F 79% 30.23 in 10.0 mi West 3.5 mph - N/A   Clear
4:53 PM 28.0 °F 24.2 °F 24.1 °F 85% 30.24 in - SW 3.5 mph - N/A   Clear
5:53 PM 27.0 °F 23.0 °F 21.0 °F 78% 30.25 in 10.0 mi SW 3.5 mph - N/A   Clear
6:53 PM 25.0 °F - 21.9 °F 88% 30.26 in 10.0 mi Calm Calm - N/A   Clear
7:53 PM 25.0 °F - 19.0 °F 78% 30.26 in 10.0 mi Calm Calm - N/A   Clear
8:53 PM 27.0 °F - 17.1 °F 66% 30.26 in 10.0 mi Calm Calm - N/A   Clear
9:34 PM - - - N/A% 30.24 in 10.0 mi SSE 3.5 mph - N/A   Mostly Cloudy
9:53 PM - - - N/A% 30.24 in 10.0 mi SSE 3.5 mph - N/A   Overcast
10:53 PM - - - N/A% 30.24 in 10.0 mi Calm Calm - N/A   Mostly Cloudy
11:00 PM - - - N/A% 30.24 in 10.0 mi ESE 3.5 mph - N/A   Scattered Clouds
11:53 PM - - - N/A% 30.23 in 10.0 mi Calm Calm - N/A   Clear